Skip Page Navigation
NASA JPL Caltech
NASA Logo - Jet Propulsion Laboratory + View the NASA Portal
+ Center for Near-Earth Object Studies
JPL Home Earth Solar System Stars & Galaxies Technology
JPL Solar System Dynamics
BODIES ORBITS EPHEMERIDES TOOLS PHYSICAL DATA DISCOVERY FAQ SITE MAP
JPL Small-Body Database Browser
Search: [ help ]  
452306 (1997 GF29)
Classification: Main-belt Asteroid          SPK-ID: 2452306
Ephemeris | Orbit Diagram | Orbital Elements | Mission Design | Physical Parameters | Discovery Circumstances ]

[ show orbit diagram ]
Orbital Elements at Epoch 2459000.5 (2020-May-31.0) TDB
Reference: JPL 18 (heliocentric ecliptic J2000)
 Element Value Uncertainty (1-sigma)   Units 
e .3324057779075813 1.033e-07  
a 2.615718633956195 1.9363e-08 au
q 1.74623864664863 2.7191e-07 au
i 28.6902241768083 3.3265e-05 deg
node 12.03573148427064 1.1874e-05 deg
peri 255.5136349790824 6.1835e-05 deg
M 124.2979416165416 5.3826e-05 deg
tp 2458466.985285119878
(2018-Dec-14.48528512)
0.00022885 TDB
period 1545.200949098291
4.23
1.7157e-05
4.697e-08
d
yr
n .2329794064714235 2.5869e-09 deg/d
Q 3.48519862126376 2.5799e-08 au
  Orbit Determination Parameters
   # obs. used (total)      137  
   data-arc span      8254 days (22.60 yr)  
   first obs. used      1997-04-12  
   last obs. used      2019-11-17  
   planetary ephem.      DE431  
   SB-pert. ephem.      SB431-N16  
   condition code      0  
   norm. resid. RMS      .58639  
   source      ORB  
   producer      Otto Matic  
   solution date      2019-Dec-14 23:09:43  

Additional Information
 Earth MOID = .923887 au 
 Jupiter MOID = 2.19301 au 
 T_jup = 3.162 
[ show covariance matrix ]

Ephemeris | Orbit Diagram | Orbital Elements | Mission Design | Physical Parameters | Discovery Circumstances ]

Physical Parameter Table
Parameter Symbol Value Units Sigma Reference Notes
absolute magnitude H 16.8   n/a MPO357281  

452306 (1997 GF29)          Discovered 1997-Apr-12 by Spacewatch at Kitt Peak
Reference: Last Updated: 2016-01-04

Alternate Designations
 1997 GF29 = 2002 SY3 
Ephemeris | Orbit Diagram | Orbital Elements | Mission Design | Physical Parameters | Discovery Circumstances ]
ABOUT SSD CREDITS/AWARDS PRIVACY/COPYRIGHT GLOSSARY LINKS
FirstGov 2020-Jul-14 11:17 UT
(server date/time)  
NASA Home Page
Site Manager:   Ryan S. Park
Webmaster  Alan B. Chamberlin